TimeMST,TemperatureF,Dew PointF,Humidity,Sea Level PressureIn,VisibilityMPH,Wind Direction,Wind SpeedMPH,Gust SpeedMPH,PrecipitationIn,Events,Conditions,WindDirDegrees,DateUTC
12:39 AM,28.4,23.0,80,30.07,10.0,WNW,17.3,-,N/A,,Overcast,300,2013-02-27 07:39:00
12:56 AM,28.9,23.0,78,30.14,10.0,WNW,16.1,-,N/A,,Overcast,300,2013-02-27 07:56:00
1:56 AM,28.9,23.0,78,30.16,10.0,NW,12.7,-,N/A,,Overcast,310,2013-02-27 08:56:00
2:38 AM,28.4,21.2,74,30.09,10.0,NW,15.0,-,N/A,,Overcast,310,2013-02-27 09:38:00
2:56 AM,28.0,21.9,78,30.18,10.0,NW,13.8,21.9,N/A,,Overcast,320,2013-02-27 09:56:00
3:14 AM,26.6,21.2,80,30.10,10.0,WNW,18.4,23.0,N/A,,Overcast,300,2013-02-27 10:14:00
3:56 AM,27.0,21.9,81,30.19,10.0,WNW,15.0,-,N/A,,Overcast,300,2013-02-27 10:56:00
4:56 AM,27.0,21.9,81,30.21,10.0,NW,16.1,-,N/A,,Overcast,320,2013-02-27 11:56:00
5:40 AM,26.6,23.0,86,30.13,9.0,NW,18.4,-,N/A,,Overcast,310,2013-02-27 12:40:00
5:56 AM,26.1,23.0,88,30.23,9.0,NW,15.0,-,N/A,,Overcast,310,2013-02-27 12:56:00
6:56 AM,26.1,23.0,88,30.24,5.0,NW,12.7,21.9,N/A,,Overcast,320,2013-02-27 13:56:00
7:09 AM,26.6,24.8,93,30.14,4.0,NW,12.7,-,N/A,,Overcast,320,2013-02-27 14:09:00
7:27 AM,24.8,24.8,100,30.15,2.0,NNW,15.0,-,N/A,,Overcast,330,2013-02-27 14:27:00
7:47 AM,24.8,21.2,86,30.15,4.0,NNW,12.7,-,N/A,,Overcast,340,2013-02-27 14:47:00
7:56 AM,25.0,21.9,88,30.26,4.0,NW,12.7,-,N/A,,Overcast,320,2013-02-27 14:56:00
8:56 AM,24.1,21.9,91,30.27,2.5,NNW,12.7,-,N/A,,Overcast,330,2013-02-27 15:56:00
9:03 AM,24.8,21.2,86,30.17,3.0,NNW,13.8,-,N/A,,Overcast,330,2013-02-27 16:03:00
9:12 AM,24.8,21.2,86,30.17,2.0,North,11.5,-,N/A,,Overcast,350,2013-02-27 16:12:00
9:21 AM,24.8,23.0,93,30.17,1.5,North,9.2,-,N/A,,Overcast,350,2013-02-27 16:21:00
9:38 AM,24.8,23.0,93,30.18,2.5,NNW,11.5,-,N/A,,Overcast,330,2013-02-27 16:38:00
9:53 AM,24.8,23.0,93,30.19,3.0,North,10.4,-,N/A,,Overcast,350,2013-02-27 16:53:00
9:56 AM,25.0,23.0,92,30.28,3.0,NNW,10.4,-,N/A,,Overcast,330,2013-02-27 16:56:00
10:46 AM,24.8,21.2,86,30.19,5.0,North,10.4,-,N/A,,Overcast,360,2013-02-27 17:46:00
10:56 AM,25.0,21.9,88,30.30,5.0,North,10.4,-,N/A,,Overcast,350,2013-02-27 17:56:00
11:20 AM,26.6,21.2,80,30.20,7.0,NNE,10.4,-,N/A,,Overcast,20,2013-02-27 18:20:00
11:56 AM,27.0,21.0,78,30.30,8.0,North,9.2,-,N/A,,Overcast,350,2013-02-27 18:56:00
12:56 PM,28.0,21.0,75,30.29,10.0,North,8.1,-,N/A,,Overcast,360,2013-02-27 19:56:00
1:56 PM,28.0,21.0,75,30.29,10.0,NW,6.9,-,N/A,,Overcast,320,2013-02-27 20:56:00
2:56 PM,28.0,21.9,78,30.30,5.0,North,6.9,-,0.00,Snow,Light Snow,360,2013-02-27 21:56:00
3:56 PM,28.0,21.9,78,30.30,10.0,North,6.9,-,0.00,,Overcast,360,2013-02-27 22:56:00
4:56 PM,28.0,21.0,75,30.30,10.0,North,6.9,-,N/A,,Overcast,10,2013-02-27 23:56:00
5:56 PM,27.0,21.0,78,30.31,10.0,North,5.8,-,N/A,,Overcast,360,2013-02-28 00:56:00
6:07 PM,26.6,21.2,80,30.21,10.0,North,3.5,-,N/A,,Overcast,350,2013-02-28 01:07:00
6:56 PM,27.0,21.0,78,30.31,10.0,NE,4.6,-,N/A,,Overcast,40,2013-02-28 01:56:00
7:22 PM,26.6,21.2,80,30.21,10.0,Calm,Calm,-,N/A,,Overcast,0,2013-02-28 02:22:00
7:56 PM,26.1,21.9,84,30.31,10.0,East,4.6,-,N/A,,Overcast,80,2013-02-28 02:56:00
8:06 PM,26.6,21.2,80,30.21,10.0,Calm,Calm,-,N/A,,Overcast,0,2013-02-28 03:06:00
8:56 PM,26.1,21.9,84,30.31,7.0,ENE,5.8,-,0.00,Snow,Light Snow,70,2013-02-28 03:56:00
9:26 PM,24.8,23.0,93,30.20,9.0,ENE,6.9,-,0.00,,Overcast,70,2013-02-28 04:26:00
9:44 PM,24.8,21.2,86,30.21,10.0,ENE,4.6,-,0.00,,Overcast,70,2013-02-28 04:44:00
9:56 PM,25.0,21.9,88,30.32,9.0,ENE,5.8,-,0.00,,Overcast,70,2013-02-28 04:56:00
11:09 PM,24.8,21.2,86,30.20,3.0,East,4.6,-,0.00,Snow,Light Snow,80,2013-02-28 06:09:00
11:37 PM,24.8,21.2,86,30.19,5.0,ENE,4.6,-,0.00,Snow,Light Snow,70,2013-02-28 06:37:00
11:56 PM,24.1,21.0,88,30.30,5.0,ENE,4.6,-,0.00,Snow,Light Snow,70,2013-02-28 06:56:00